User: anonymous   Login
Location: Newark
(52.4787°S, 179.0532°W)
Time: 14:37:41
(UTC+00:00)
Language:

Envisat - Orbit

View from above orbital plane
View from above orbital plane
View from above satellite
View from above satellite

Ground track
Ground track

The orbit data is extracted from the following two-line orbital elements,

1 27386U 02009A   19326.15931427  .00000011  00000-0  17072-4 0  9993
2 27386  98.1425 339.1267 0001315  94.3142 311.1789 14.37963440928685
Epoch (UTC): 22 November 2019 03:49:24
Eccentricity: 0.0001315
inclination: 98.1425°
perigee height: 764 km
apogee height: 766 km
right ascension of ascending node: 339.1267°
argument of perigee: 94.3142°
revolutions per day: 14.37963440
mean anomaly at epoch: 311.1789°
orbit number at epoch: 92868

The dashed part of the orbit path shows where the satellite is in the earth's shadow,  

DLR